Volver al catálogo

COSMOS 1132

ActivoMilitarLEO
NORAD 11540·PAYLOAD·🇷🇺 Russia

Lanzado Sep 25, 1979 desde Plesetsk Cosmodrome

Loading…

Próximos Pases (próximas 24 horas)

TLE

ActualizadoSource: Space-Track

Época: Sep 14, 2026, 13:29 UTC

1 11540U 79084C   26257.56212752 -.00000019  00000-0 -21398-4 0  9990
2 11540  74.0216  94.0621 0035767 139.0797 249.6515 12.52670422147868

Sigue COSMOS 1132 en tiempo real con AllMySat

Download on the App Store